Year,Month,Day,Hour,Minute,Value (Times are PST for temperature in C)
2005,06,19,00,00,14.90
2005,06,19,00,01,14.90
2005,06,19,00,02,14.90
2005,06,19,00,03,14.90
2005,06,19,00,04,14.80
2005,06,19,00,05,14.80
2005,06,19,00,06,14.80
2005,06,19,00,07,14.80
2005,06,19,00,08,14.80
2005,06,19,00,09,14.80
2005,06,19,00,10,14.80
2005,06,19,00,11,14.80
2005,06,19,00,12,14.70
2005,06,19,00,13,14.70
2005,06,19,00,14,14.70
2005,06,19,00,15,14.70
2005,06,19,00,16,14.70
2005,06,19,00,17,14.70
2005,06,19,00,18,14.70
2005,06,19,00,19,14.70
2005,06,19,00,20,14.70
2005,06,19,00,21,14.70
2005,06,19,00,22,14.60
2005,06,19,00,23,14.60
2005,06,19,00,24,14.60
2005,06,19,00,25,14.60
2005,06,19,00,26,14.60
2005,06,19,00,27,14.60
2005,06,19,00,28,14.60
2005,06,19,00,29,14.50
2005,06,19,00,30,14.50
2005,06,19,00,31,14.50
2005,06,19,00,32,14.50
2005,06,19,00,33,14.50
2005,06,19,00,34,14.50
2005,06,19,00,35,14.50
2005,06,19,00,36,14.50
2005,06,19,00,37,14.40
2005,06,19,00,38,14.40
2005,06,19,00,39,14.40
2005,06,19,00,40,14.40
2005,06,19,00,41,14.40
2005,06,19,00,42,14.40
2005,06,19,00,43,14.40
2005,06,19,00,44,14.40
2005,06,19,00,45,14.40
2005,06,19,00,46,14.40
2005,06,19,00,47,14.30
2005,06,19,00,48,14.30
2005,06,19,00,49,14.30
2005,06,19,00,50,14.30
2005,06,19,00,51,14.30
2005,06,19,00,52,14.30
2005,06,19,00,53,14.30
2005,06,19,00,54,14.30
2005,06,19,00,55,14.30
2005,06,19,00,56,14.30
2005,06,19,00,57,14.30
2005,06,19,00,58,14.30
2005,06,19,00,59,14.20
2005,06,19,01,00,14.20
2005,06,19,01,01,14.20
2005,06,19,01,02,14.20
2005,06,19,01,03,14.20
2005,06,19,01,04,14.20
2005,06,19,01,05,14.20
2005,06,19,01,06,14.20
2005,06,19,01,07,14.20
2005,06,19,01,08,14.20
2005,06,19,01,09,14.20
2005,06,19,01,10,14.20
2005,06,19,01,11,14.20
2005,06,19,01,12,14.20
2005,06,19,01,13,14.20
2005,06,19,01,14,14.20
2005,06,19,01,15,14.20
2005,06,19,01,16,14.20
2005,06,19,01,17,14.20
2005,06,19,01,18,14.20
2005,06,19,01,19,14.20
2005,06,19,01,20,14.10
2005,06,19,01,21,14.10
2005,06,19,01,22,14.10
2005,06,19,01,23,14.10
2005,06,19,01,24,14.10
2005,06,19,01,25,14.10
2005,06,19,01,26,14.10
2005,06,19,01,27,14.10
2005,06,19,01,28,14.10
2005,06,19,01,29,14.10
2005,06,19,01,30,14.10
2005,06,19,01,31,14.10
2005,06,19,01,32,14.10
2005,06,19,01,33,14.10
2005,06,19,01,34,14.10
2005,06,19,01,35,14.10
2005,06,19,01,36,14.10
2005,06,19,01,37,14.10
2005,06,19,01,38,14.00
2005,06,19,01,39,14.00
2005,06,19,01,40,14.00
2005,06,19,01,41,14.00
2005,06,19,01,42,14.00
2005,06,19,01,43,14.00
2005,06,19,01,44,14.00
2005,06,19,01,45,14.00
2005,06,19,01,46,14.00
2005,06,19,01,47,13.90
2005,06,19,01,48,13.90
2005,06,19,01,49,13.90
2005,06,19,01,50,13.90
2005,06,19,01,51,13.90
2005,06,19,01,52,13.90
2005,06,19,01,53,13.90
2005,06,19,01,54,13.90
2005,06,19,01,55,13.90
2005,06,19,01,56,13.90
2005,06,19,01,57,13.90
2005,06,19,01,58,13.90
2005,06,19,01,59,13.90
2005,06,19,02,00,13.80
2005,06,19,02,01,13.80
2005,06,19,02,02,13.80
2005,06,19,02,03,13.80
2005,06,19,02,04,13.80
2005,06,19,02,05,13.80
2005,06,19,02,06,13.80
2005,06,19,02,07,13.80
2005,06,19,02,08,13.80
2005,06,19,02,09,13.80
2005,06,19,02,10,13.80
2005,06,19,02,11,13.80
2005,06,19,02,12,13.80
2005,06,19,02,13,13.80
2005,06,19,02,14,13.80
2005,06,19,02,15,13.80
2005,06,19,02,16,13.80
2005,06,19,02,17,13.80
2005,06,19,02,18,13.80
2005,06,19,02,19,13.80
2005,06,19,02,20,13.80
2005,06,19,02,21,13.80
2005,06,19,02,22,13.80
2005,06,19,02,23,13.80
2005,06,19,02,24,13.80
2005,06,19,02,25,13.80
2005,06,19,02,26,13.80
2005,06,19,02,27,13.80
2005,06,19,02,28,13.80
2005,06,19,02,29,13.80
2005,06,19,02,30,13.70
2005,06,19,02,31,13.70
2005,06,19,02,32,13.70
2005,06,19,02,33,13.70
2005,06,19,02,34,13.70
2005,06,19,02,35,13.70
2005,06,19,02,36,13.70
2005,06,19,02,37,13.70
2005,06,19,02,38,13.70
2005,06,19,02,39,13.70
2005,06,19,02,40,13.70
2005,06,19,02,41,13.70
2005,06,19,02,42,13.70
2005,06,19,02,43,13.70
2005,06,19,02,44,13.70
2005,06,19,02,45,13.70
2005,06,19,02,46,13.70
2005,06,19,02,47,13.70
2005,06,19,02,48,13.70
2005,06,19,02,49,13.70
2005,06,19,02,50,13.70
2005,06,19,02,51,13.70
2005,06,19,02,52,13.70
2005,06,19,02,53,13.70
2005,06,19,02,54,13.70
2005,06,19,02,55,13.70
2005,06,19,02,56,13.60
2005,06,19,02,57,13.60
2005,06,19,02,58,13.60
2005,06,19,02,59,13.60
2005,06,19,03,00,13.60
2005,06,19,03,01,13.50
2005,06,19,03,02,13.50
2005,06,19,03,03,13.50
2005,06,19,03,04,13.50
2005,06,19,03,05,13.50
2005,06,19,03,06,13.40
2005,06,19,03,07,13.50
2005,06,19,03,08,13.50
2005,06,19,03,09,13.50
2005,06,19,03,10,13.50
2005,06,19,03,11,13.50
2005,06,19,03,12,13.50
2005,06,19,03,13,13.50
2005,06,19,03,14,13.50
2005,06,19,03,15,13.50
2005,06,19,03,16,13.50
2005,06,19,03,17,13.50
2005,06,19,03,18,13.50
2005,06,19,03,19,13.50
2005,06,19,03,20,13.50
2005,06,19,03,21,13.50
2005,06,19,03,22,13.50
2005,06,19,03,23,13.50
2005,06,19,03,24,13.50
2005,06,19,03,25,13.40
2005,06,19,03,26,13.40
2005,06,19,03,27,13.40
2005,06,19,03,28,13.40
2005,06,19,03,29,13.30
2005,06,19,03,30,13.30
2005,06,19,03,31,13.30
2005,06,19,03,32,13.30
2005,06,19,03,33,13.30
2005,06,19,03,34,13.30
2005,06,19,03,35,13.30
2005,06,19,03,36,13.30
2005,06,19,03,37,13.30
2005,06,19,03,38,13.30
2005,06,19,03,39,13.30
2005,06,19,03,40,13.30
2005,06,19,03,41,13.30
2005,06,19,03,42,13.30
2005,06,19,03,43,13.30
2005,06,19,03,44,13.30
2005,06,19,03,45,13.30
2005,06,19,03,46,13.30
2005,06,19,03,47,13.30
2005,06,19,03,48,13.30
2005,06,19,03,49,13.30
2005,06,19,03,50,13.30
2005,06,19,03,51,13.30
2005,06,19,03,52,13.30
2005,06,19,03,53,13.30
2005,06,19,03,54,13.30
2005,06,19,03,55,13.30
2005,06,19,03,56,13.30
2005,06,19,03,57,13.30
2005,06,19,03,58,13.30
2005,06,19,03,59,13.30
2005,06,19,04,00,13.30
2005,06,19,04,01,13.30
2005,06,19,04,02,13.30
2005,06,19,04,03,13.30
2005,06,19,04,04,13.30
2005,06,19,04,05,13.30
2005,06,19,04,06,13.30
2005,06,19,04,07,13.30
2005,06,19,04,08,13.30
2005,06,19,04,09,13.30
2005,06,19,04,10,13.30
2005,06,19,04,11,13.30
2005,06,19,04,12,13.30
2005,06,19,04,13,13.30
2005,06,19,04,14,13.30
2005,06,19,04,15,13.30
2005,06,19,04,16,13.30
2005,06,19,04,17,13.30
2005,06,19,04,18,13.30
2005,06,19,04,19,13.30
2005,06,19,04,20,13.30
2005,06,19,04,21,13.30
2005,06,19,04,22,13.20
2005,06,19,04,23,13.20
2005,06,19,04,24,13.20
2005,06,19,04,25,13.20
2005,06,19,04,26,13.20
2005,06,19,04,27,13.20
2005,06,19,04,28,13.20
2005,06,19,04,29,13.20
2005,06,19,04,30,13.20
2005,06,19,04,31,13.20
2005,06,19,04,32,13.20
2005,06,19,04,33,13.10
2005,06,19,04,34,13.10
2005,06,19,04,35,13.10
2005,06,19,04,36,13.10
2005,06,19,04,37,13.10
2005,06,19,04,38,13.00
2005,06,19,04,39,13.00
2005,06,19,04,40,13.00
2005,06,19,04,41,13.00
2005,06,19,04,42,12.90
2005,06,19,04,43,12.90
2005,06,19,04,44,12.90
2005,06,19,04,45,12.90
2005,06,19,04,46,12.90
2005,06,19,04,47,12.90
2005,06,19,04,48,12.80
2005,06,19,04,49,12.80
2005,06,19,04,50,12.80
2005,06,19,04,51,12.80
2005,06,19,04,52,12.80
2005,06,19,04,53,12.80
2005,06,19,04,54,12.80
2005,06,19,04,55,12.80
2005,06,19,04,56,12.80
2005,06,19,04,57,12.80
2005,06,19,04,58,12.80
2005,06,19,04,59,12.80
2005,06,19,05,00,12.80
2005,06,19,05,01,12.70
2005,06,19,05,02,12.70
2005,06,19,05,03,12.70
2005,06,19,05,04,12.70
2005,06,19,05,05,12.70
2005,06,19,05,06,12.70
2005,06,19,05,07,12.70
2005,06,19,05,08,12.70
2005,06,19,05,09,12.70
2005,06,19,05,10,12.70
2005,06,19,05,11,12.70
2005,06,19,05,12,12.60
2005,06,19,05,13,12.60
2005,06,19,05,14,12.60
2005,06,19,05,15,12.60
2005,06,19,05,16,12.60
2005,06,19,05,17,12.60
2005,06,19,05,18,12.60
2005,06,19,05,19,12.60
2005,06,19,05,20,12.60
2005,06,19,05,21,12.60
2005,06,19,05,22,12.60
2005,06,19,05,23,12.60
2005,06,19,05,24,12.60
2005,06,19,05,25,12.60
2005,06,19,05,26,12.60
2005,06,19,05,27,12.60
2005,06,19,05,28,12.60
2005,06,19,05,29,12.60
2005,06,19,05,30,12.60
2005,06,19,05,31,12.60
2005,06,19,05,32,12.70
2005,06,19,05,33,12.70
2005,06,19,05,34,12.70
2005,06,19,05,35,12.70
2005,06,19,05,36,12.70
2005,06,19,05,37,12.70
2005,06,19,05,38,12.70
2005,06,19,05,39,12.70
2005,06,19,05,40,12.70
2005,06,19,05,41,12.70
2005,06,19,05,42,12.70
2005,06,19,05,43,12.70
2005,06,19,05,44,12.70
2005,06,19,05,45,12.80
2005,06,19,05,46,12.80
2005,06,19,05,47,12.80
2005,06,19,05,48,12.80
2005,06,19,05,49,12.80
2005,06,19,05,50,12.80
2005,06,19,05,51,12.80
2005,06,19,05,52,12.80
2005,06,19,05,53,12.80
2005,06,19,05,54,12.80
2005,06,19,05,55,12.80
2005,06,19,05,56,12.80
2005,06,19,05,57,12.80
2005,06,19,05,58,12.80
2005,06,19,05,59,12.80
2005,06,19,06,00,12.80
2005,06,19,06,01,12.80
2005,06,19,06,02,12.80
2005,06,19,06,03,12.80
2005,06,19,06,04,12.80
2005,06,19,06,05,12.80
2005,06,19,06,06,12.80
2005,06,19,06,07,12.80
2005,06,19,06,08,12.80
2005,06,19,06,09,12.80
2005,06,19,06,10,12.90
2005,06,19,06,11,12.90
2005,06,19,06,12,12.90
2005,06,19,06,13,13.00
2005,06,19,06,14,13.00
2005,06,19,06,15,13.00
2005,06,19,06,16,13.10
2005,06,19,06,17,13.10
2005,06,19,06,18,13.10
2005,06,19,06,19,13.10
2005,06,19,06,20,13.10
2005,06,19,06,21,13.20
2005,06,19,06,22,13.20
2005,06,19,06,23,13.20
2005,06,19,06,24,13.20
2005,06,19,06,25,13.30
2005,06,19,06,26,13.30
2005,06,19,06,27,13.30
2005,06,19,06,28,13.30
2005,06,19,06,29,13.30
2005,06,19,06,30,13.30
2005,06,19,06,31,13.40
2005,06,19,06,32,13.40
2005,06,19,06,33,13.50
2005,06,19,06,34,13.50
2005,06,19,06,35,13.60
2005,06,19,06,36,13.60
2005,06,19,06,37,13.70
2005,06,19,06,38,13.80
2005,06,19,06,39,13.80
2005,06,19,06,40,13.90
2005,06,19,06,41,14.00
2005,06,19,06,42,14.00
2005,06,19,06,43,14.10
2005,06,19,06,44,14.20
2005,06,19,06,45,14.20
2005,06,19,06,46,14.30
2005,06,19,06,47,14.30
2005,06,19,06,48,14.40
2005,06,19,06,49,14.40
2005,06,19,06,50,14.40
2005,06,19,06,51,14.50
2005,06,19,06,52,14.50
2005,06,19,06,53,14.50
2005,06,19,06,54,14.50
2005,06,19,06,55,14.60
2005,06,19,06,56,14.60
2005,06,19,06,57,14.60
2005,06,19,06,58,14.60
2005,06,19,06,59,14.70
2005,06,19,07,00,14.70
2005,06,19,07,01,14.70
2005,06,19,07,02,14.80
2005,06,19,07,03,14.80
2005,06,19,07,04,14.80
2005,06,19,07,05,14.80
2005,06,19,07,06,14.90
2005,06,19,07,07,15.00
2005,06,19,07,08,15.10
2005,06,19,07,09,15.20
2005,06,19,07,10,15.20
2005,06,19,07,11,15.30
2005,06,19,07,12,15.30
2005,06,19,07,13,15.30
2005,06,19,07,14,15.40
2005,06,19,07,15,15.40
2005,06,19,07,16,15.50
2005,06,19,07,17,15.60
2005,06,19,07,18,15.60
2005,06,19,07,19,15.70
2005,06,19,07,20,15.80
2005,06,19,07,21,15.80
2005,06,19,07,22,15.80
2005,06,19,07,23,15.80
2005,06,19,07,24,15.80
2005,06,19,07,25,16.30
2005,06,19,07,26,16.30
2005,06,19,07,27,16.30
2005,06,19,07,28,16.40
2005,06,19,07,29,16.40
2005,06,19,07,30,16.40
2005,06,19,07,31,16.50
2005,06,19,07,32,16.60
2005,06,19,07,33,16.70
2005,06,19,07,34,16.70
2005,06,19,07,35,16.80
2005,06,19,07,36,16.80
2005,06,19,07,37,16.80
2005,06,19,07,38,16.80
2005,06,19,07,39,16.70
2005,06,19,07,40,16.70
2005,06,19,07,41,16.70
2005,06,19,07,42,16.70
2005,06,19,07,43,16.70
2005,06,19,07,44,16.80
2005,06,19,07,45,16.90
2005,06,19,07,46,17.00
2005,06,19,07,47,17.20
2005,06,19,07,48,17.20
2005,06,19,07,49,17.30
2005,06,19,07,50,17.30
2005,06,19,07,51,17.40
2005,06,19,07,52,17.40
2005,06,19,07,53,17.40
2005,06,19,07,54,17.50
2005,06,19,07,55,17.60
2005,06,19,07,56,17.60
2005,06,19,07,57,17.70
2005,06,19,07,58,17.70
2005,06,19,07,59,17.80
2005,06,19,08,00,17.80
2005,06,19,08,01,17.90
2005,06,19,08,02,17.90
2005,06,19,08,03,17.90
2005,06,19,08,04,17.90
2005,06,19,08,05,17.90
2005,06,19,08,06,17.90
2005,06,19,08,07,18.00
2005,06,19,08,08,18.10
2005,06,19,08,09,18.10
2005,06,19,08,10,18.20
2005,06,19,08,11,18.10
2005,06,19,08,12,17.90
2005,06,19,08,13,17.90
2005,06,19,08,14,17.80
2005,06,19,08,15,17.80
2005,06,19,08,16,17.70
2005,06,19,08,17,17.70
2005,06,19,08,18,17.70
2005,06,19,08,19,17.70
2005,06,19,08,20,17.80
2005,06,19,08,21,17.90
2005,06,19,08,22,18.10
2005,06,19,08,23,18.20
2005,06,19,08,24,18.20
2005,06,19,08,25,18.10
2005,06,19,08,26,18.20
2005,06,19,08,27,18.20
2005,06,19,08,28,18.20
2005,06,19,08,29,18.20
2005,06,19,08,30,18.30
2005,06,19,08,31,18.20
2005,06,19,08,32,18.20
2005,06,19,08,33,18.10
2005,06,19,08,34,17.80
2005,06,19,08,35,17.50
2005,06,19,08,36,17.30
2005,06,19,08,37,17.10
2005,06,19,08,38,17.00
2005,06,19,08,39,17.00
2005,06,19,08,40,17.00
2005,06,19,08,41,17.00
2005,06,19,08,42,17.00
2005,06,19,08,43,17.00
2005,06,19,08,44,17.00
2005,06,19,08,45,17.00
2005,06,19,08,46,16.90
2005,06,19,08,47,16.90
2005,06,19,08,48,16.80
2005,06,19,08,49,16.70
2005,06,19,08,50,16.70
2005,06,19,08,51,16.60
2005,06,19,08,52,16.70
2005,06,19,08,53,16.70
2005,06,19,08,54,16.70
2005,06,19,08,55,16.70
2005,06,19,08,56,16.70
2005,06,19,08,57,16.70
2005,06,19,08,58,16.80
2005,06,19,08,59,16.90
2005,06,19,09,00,16.90
2005,06,19,09,01,16.90
2005,06,19,09,02,17.00
2005,06,19,09,03,17.10
2005,06,19,09,04,17.10
2005,06,19,09,05,17.10
2005,06,19,09,06,17.00
2005,06,19,09,07,17.00
2005,06,19,09,08,17.00
2005,06,19,09,09,16.90
2005,06,19,09,10,17.00
2005,06,19,09,11,17.00
2005,06,19,09,12,17.20
2005,06,19,09,13,17.20
2005,06,19,09,14,17.20
2005,06,19,09,15,17.20
2005,06,19,09,16,17.20
2005,06,19,09,17,17.20
2005,06,19,09,18,17.10
2005,06,19,09,19,17.10
2005,06,19,09,20,17.10
2005,06,19,09,21,17.10
2005,06,19,09,22,17.10
2005,06,19,09,23,17.20
2005,06,19,09,24,17.20
2005,06,19,09,25,17.20
2005,06,19,09,26,17.20
2005,06,19,09,27,17.10
2005,06,19,09,28,17.00
2005,06,19,09,29,17.00
2005,06,19,09,30,17.00
2005,06,19,09,31,17.00
2005,06,19,09,32,17.10
2005,06,19,09,33,17.00
2005,06,19,09,34,16.90
2005,06,19,09,35,16.80
2005,06,19,09,36,16.70
2005,06,19,09,37,16.70
2005,06,19,09,38,16.70
2005,06,19,09,39,16.70
2005,06,19,09,40,16.60
2005,06,19,09,41,16.60
2005,06,19,09,42,16.60
2005,06,19,09,43,16.70
2005,06,19,09,44,16.60
2005,06,19,09,45,16.60
2005,06,19,09,46,16.60
2005,06,19,09,47,16.70
2005,06,19,09,48,16.70
2005,06,19,09,49,16.70
2005,06,19,09,50,16.70
2005,06,19,09,51,16.80
2005,06,19,09,52,16.90
2005,06,19,09,53,16.90
2005,06,19,09,54,16.90
2005,06,19,09,55,16.90
2005,06,19,09,56,17.00
2005,06,19,09,57,17.00
2005,06,19,09,58,17.00
2005,06,19,09,59,17.10
2005,06,19,10,00,17.10
2005,06,19,10,01,17.20
2005,06,19,10,02,17.20
2005,06,19,10,03,17.30
2005,06,19,10,04,17.30
2005,06,19,10,05,17.30
2005,06,19,10,06,17.40
2005,06,19,10,07,17.40
2005,06,19,10,08,17.40
2005,06,19,10,09,17.40
2005,06,19,10,10,17.30
2005,06,19,10,11,17.30
2005,06,19,10,12,17.30
2005,06,19,10,13,17.40
2005,06,19,10,14,17.50
2005,06,19,10,15,17.50
2005,06,19,10,16,17.50
2005,06,19,10,17,17.60
2005,06,19,10,18,17.60
2005,06,19,10,19,17.60
2005,06,19,10,20,17.70
2005,06,19,10,21,17.70
2005,06,19,10,22,17.90
2005,06,19,10,23,17.90
2005,06,19,10,24,17.90
2005,06,19,10,25,17.80
2005,06,19,10,26,17.70
2005,06,19,10,27,17.50
2005,06,19,10,28,17.50
2005,06,19,10,29,17.50
2005,06,19,10,30,17.40
2005,06,19,10,31,17.40
2005,06,19,10,32,17.50
2005,06,19,10,33,17.60
2005,06,19,10,34,17.60
2005,06,19,10,35,17.60
2005,06,19,10,36,17.70
2005,06,19,10,37,17.70
2005,06,19,10,38,17.80
2005,06,19,10,39,17.90
2005,06,19,10,40,17.90
2005,06,19,10,41,18.00
2005,06,19,10,42,18.10
2005,06,19,10,43,18.20
2005,06,19,10,44,18.20
2005,06,19,10,45,18.40
2005,06,19,10,46,18.40
2005,06,19,10,47,18.40
2005,06,19,10,48,18.50
2005,06,19,10,49,18.60
2005,06,19,10,50,18.60
2005,06,19,10,51,18.50
2005,06,19,10,52,18.50
2005,06,19,10,53,18.50
2005,06,19,10,54,18.50
2005,06,19,10,55,18.50
2005,06,19,10,56,18.50
2005,06,19,10,57,18.40
2005,06,19,10,58,18.50
2005,06,19,10,59,18.50
2005,06,19,11,00,18.60
2005,06,19,11,01,18.70
2005,06,19,11,02,18.60
2005,06,19,11,03,18.60
2005,06,19,11,04,18.60
2005,06,19,11,05,18.50
2005,06,19,11,06,18.50
2005,06,19,11,07,18.60
2005,06,19,11,08,18.60
2005,06,19,11,09,18.70
2005,06,19,11,10,18.80
2005,06,19,11,11,18.70
2005,06,19,11,12,18.70
2005,06,19,11,13,18.70
2005,06,19,11,14,18.80
2005,06,19,11,15,18.80
2005,06,19,11,16,18.80
2005,06,19,11,17,18.90
2005,06,19,11,18,18.90
2005,06,19,11,19,18.90
2005,06,19,11,20,19.00
2005,06,19,11,21,19.10
2005,06,19,11,22,19.10
2005,06,19,11,23,19.10
2005,06,19,11,24,19.10
2005,06,19,11,25,19.10
2005,06,19,11,26,19.10
2005,06,19,11,27,19.10
2005,06,19,11,28,19.10
2005,06,19,11,29,19.20
2005,06,19,11,30,19.20
2005,06,19,11,31,19.10
2005,06,19,11,32,19.10
2005,06,19,11,33,19.00
2005,06,19,11,34,18.90
2005,06,19,11,35,18.90
2005,06,19,11,36,18.90
2005,06,19,11,37,19.00
2005,06,19,11,38,19.10
2005,06,19,11,39,19.20
2005,06,19,11,40,19.30
2005,06,19,11,41,19.40
2005,06,19,11,42,19.50
2005,06,19,11,43,19.50
2005,06,19,11,44,19.50
2005,06,19,11,45,19.50
2005,06,19,11,46,19.50
2005,06,19,11,47,19.60
2005,06,19,11,48,19.60
2005,06,19,11,49,19.70
2005,06,19,11,50,19.80
2005,06,19,11,51,19.80
2005,06,19,11,52,19.90
2005,06,19,11,53,19.90
2005,06,19,11,54,19.90
2005,06,19,11,55,19.90
2005,06,19,11,56,19.90
2005,06,19,11,57,19.90
2005,06,19,11,58,19.90
2005,06,19,11,59,19.80
2005,06,19,12,00,19.80
2005,06,19,12,01,19.80
2005,06,19,12,02,19.80
2005,06,19,12,03,19.80
2005,06,19,12,04,19.70
2005,06,19,12,05,19.70
2005,06,19,12,06,19.70
2005,06,19,12,07,19.60
2005,06,19,12,08,19.50
2005,06,19,12,09,19.40
2005,06,19,12,10,19.20
2005,06,19,12,11,18.90
2005,06,19,12,12,18.60
2005,06,19,12,13,18.40
2005,06,19,12,14,18.40
2005,06,19,12,15,18.20
2005,06,19,12,16,18.10
2005,06,19,12,17,18.10
2005,06,19,12,18,18.10
2005,06,19,12,19,18.10
2005,06,19,12,20,18.10
2005,06,19,12,21,18.10
2005,06,19,12,22,18.10
2005,06,19,12,23,18.10
2005,06,19,12,24,18.10
2005,06,19,12,25,18.10
2005,06,19,12,26,18.10
2005,06,19,12,27,18.10
2005,06,19,12,28,18.10
2005,06,19,12,29,18.00
2005,06,19,12,30,17.90
2005,06,19,12,31,17.90
2005,06,19,12,32,17.90
2005,06,19,12,33,17.90
2005,06,19,12,34,18.00
2005,06,19,12,35,18.10
2005,06,19,12,36,18.10
2005,06,19,12,37,18.10
2005,06,19,12,38,18.20
2005,06,19,12,39,18.20
2005,06,19,12,40,18.20
2005,06,19,12,41,18.20
2005,06,19,12,42,18.20
2005,06,19,12,43,18.40
2005,06,19,12,44,18.50
2005,06,19,12,45,18.60
2005,06,19,12,46,18.60
2005,06,19,12,47,18.60
2005,06,19,12,48,18.70
2005,06,19,12,49,18.90
2005,06,19,12,50,18.90
2005,06,19,12,51,19.10
2005,06,19,12,52,19.10
2005,06,19,12,53,19.20
2005,06,19,12,54,19.30
2005,06,19,12,55,19.40
2005,06,19,12,56,19.40
2005,06,19,12,57,19.60
2005,06,19,12,58,19.60
2005,06,19,12,59,19.70
2005,06,19,13,00,19.90
2005,06,19,13,01,19.90
2005,06,19,13,02,19.80
2005,06,19,13,03,19.90
2005,06,19,13,04,19.90
2005,06,19,13,05,19.90
2005,06,19,13,06,19.90
2005,06,19,13,07,20.00
2005,06,19,13,08,20.10
2005,06,19,13,09,20.10
2005,06,19,13,10,20.10
2005,06,19,13,11,20.10
2005,06,19,13,12,20.10
2005,06,19,13,13,20.10
2005,06,19,13,14,20.10
2005,06,19,13,15,20.20
2005,06,19,13,16,20.20
2005,06,19,13,17,20.20
2005,06,19,13,18,20.30
2005,06,19,13,19,20.40
2005,06,19,13,20,20.50
2005,06,19,13,21,20.70
2005,06,19,13,22,20.80
2005,06,19,13,23,20.90
2005,06,19,13,24,20.90
2005,06,19,13,25,20.90
2005,06,19,13,26,20.90
2005,06,19,13,27,20.80
2005,06,19,13,28,20.70
2005,06,19,13,29,20.70
2005,06,19,13,30,20.80
2005,06,19,13,31,20.90
2005,06,19,13,32,21.10
2005,06,19,13,33,21.20
2005,06,19,13,34,21.30
2005,06,19,13,35,21.40
2005,06,19,13,36,21.50
2005,06,19,13,37,21.60
2005,06,19,13,38,21.60
2005,06,19,13,39,21.70
2005,06,19,13,40,21.70
2005,06,19,13,41,21.50
2005,06,19,13,42,21.40
2005,06,19,13,43,21.30
2005,06,19,13,44,21.10
2005,06,19,13,45,21.10
2005,06,19,13,46,21.10
2005,06,19,13,47,21.00
2005,06,19,13,48,21.00
2005,06,19,13,49,20.80
2005,06,19,13,50,20.80
2005,06,19,13,51,20.70
2005,06,19,13,52,20.50
2005,06,19,13,53,20.40
2005,06,19,13,54,20.50
2005,06,19,13,55,20.50
2005,06,19,13,56,20.40
2005,06,19,13,57,20.20
2005,06,19,13,58,19.90
2005,06,19,13,59,19.60
2005,06,19,14,00,19.30
2005,06,19,14,01,19.20
2005,06,19,14,02,19.10
2005,06,19,14,03,19.10
2005,06,19,14,04,19.30
2005,06,19,14,05,19.40
2005,06,19,14,06,19.40
2005,06,19,14,07,19.50
2005,06,19,14,08,19.50
2005,06,19,14,09,19.50
2005,06,19,14,10,19.40
2005,06,19,14,11,19.50
2005,06,19,14,12,19.60
2005,06,19,14,13,19.70
2005,06,19,14,14,19.70
2005,06,19,14,15,19.70
2005,06,19,14,16,19.80
2005,06,19,14,17,19.80
2005,06,19,14,18,19.90
2005,06,19,14,19,20.00
2005,06,19,14,20,20.10
2005,06,19,14,21,20.10
2005,06,19,14,22,20.20
2005,06,19,14,23,20.30
2005,06,19,14,24,20.40
2005,06,19,14,25,20.50
2005,06,19,14,26,20.50
2005,06,19,14,27,20.40
2005,06,19,14,28,20.20
2005,06,19,14,29,20.10
2005,06,19,14,30,20.10
2005,06,19,14,31,20.10
2005,06,19,14,32,20.20
2005,06,19,14,33,20.20
2005,06,19,14,34,20.20
2005,06,19,14,35,20.30
2005,06,19,14,36,20.30
2005,06,19,14,37,20.20
2005,06,19,14,38,20.20
2005,06,19,14,39,20.20
2005,06,19,14,40,20.20
2005,06,19,14,41,20.20
2005,06,19,14,42,20.20
2005,06,19,14,43,20.30
2005,06,19,14,44,20.20
2005,06,19,14,45,20.30
2005,06,19,14,46,20.40
2005,06,19,14,47,20.50
2005,06,19,14,48,20.50
2005,06,19,14,49,20.50
2005,06,19,14,50,20.60
2005,06,19,14,51,20.60
2005,06,19,14,52,20.70
2005,06,19,14,53,20.80
2005,06,19,14,54,20.90
2005,06,19,14,55,21.00
2005,06,19,14,56,21.10
2005,06,19,14,57,21.30
2005,06,19,14,58,21.40
2005,06,19,14,59,21.50
2005,06,19,15,00,21.60
2005,06,19,15,01,21.80
2005,06,19,15,02,21.90
2005,06,19,15,03,22.00
2005,06,19,15,04,22.00
2005,06,19,15,05,22.00
2005,06,19,15,06,22.00
2005,06,19,15,07,21.90
2005,06,19,15,08,22.00
2005,06,19,15,09,22.10
2005,06,19,15,10,22.10
2005,06,19,15,11,22.20
2005,06,19,15,12,22.30
2005,06,19,15,13,22.30
2005,06,19,15,14,22.50
2005,06,19,15,15,22.50
2005,06,19,15,16,22.50
2005,06,19,15,17,22.30
2005,06,19,15,18,22.10
2005,06,19,15,19,22.00
2005,06,19,15,20,21.90
2005,06,19,15,21,21.90
2005,06,19,15,22,21.90
2005,06,19,15,23,22.00
2005,06,19,15,24,21.90
2005,06,19,15,25,21.90
2005,06,19,15,26,22.00
2005,06,19,15,27,22.10
2005,06,19,15,28,22.10
2005,06,19,15,29,22.10
2005,06,19,15,30,22.10
2005,06,19,15,31,22.10
2005,06,19,15,32,22.10
2005,06,19,15,33,22.20
2005,06,19,15,34,22.20
2005,06,19,15,35,22.30
2005,06,19,15,36,22.30
2005,06,19,15,37,22.30
2005,06,19,15,38,22.30
2005,06,19,15,39,22.30
2005,06,19,15,40,22.20
2005,06,19,15,41,22.20
2005,06,19,15,42,22.30
2005,06,19,15,43,22.40
2005,06,19,15,44,22.40
2005,06,19,15,45,22.40
2005,06,19,15,46,22.30
2005,06,19,15,47,22.20
2005,06,19,15,48,22.20
2005,06,19,15,49,22.30
2005,06,19,15,50,22.30
2005,06,19,15,51,22.20
2005,06,19,15,52,22.10
2005,06,19,15,53,22.10
2005,06,19,15,54,22.10
2005,06,19,15,55,22.20
2005,06,19,15,56,22.10
2005,06,19,15,57,22.10
2005,06,19,15,58,22.00
2005,06,19,15,59,22.00
2005,06,19,16,00,22.00
2005,06,19,16,01,21.80
2005,06,19,16,02,21.80
2005,06,19,16,03,21.80
2005,06,19,16,04,21.80
2005,06,19,16,05,21.90
2005,06,19,16,06,22.00
2005,06,19,16,07,22.00
2005,06,19,16,08,22.00
2005,06,19,16,09,22.20
2005,06,19,16,10,22.20
2005,06,19,16,11,22.20
2005,06,19,16,12,22.20
2005,06,19,16,13,22.20
2005,06,19,16,14,22.30
2005,06,19,16,15,22.20
2005,06,19,16,16,22.20
2005,06,19,16,17,22.20
2005,06,19,16,18,22.20
2005,06,19,16,19,22.30
2005,06,19,16,20,22.20
2005,06,19,16,21,22.30
2005,06,19,16,22,22.30
2005,06,19,16,23,22.30
2005,06,19,16,24,22.30
2005,06,19,16,25,22.20
2005,06,19,16,26,22.10
2005,06,19,16,27,22.00
2005,06,19,16,28,21.90
2005,06,19,16,29,21.90
2005,06,19,16,30,21.90
2005,06,19,16,31,21.90
2005,06,19,16,32,21.90
2005,06,19,16,33,21.90
2005,06,19,16,34,21.90
2005,06,19,16,35,22.00
2005,06,19,16,36,22.00
2005,06,19,16,37,21.90
2005,06,19,16,38,21.80
2005,06,19,16,39,21.80
2005,06,19,16,40,21.80
2005,06,19,16,41,21.90
2005,06,19,16,42,21.90
2005,06,19,16,43,21.90
2005,06,19,16,44,21.80
2005,06,19,16,45,21.80
2005,06,19,16,46,21.90
2005,06,19,16,47,21.90
2005,06,19,16,48,22.00
2005,06,19,16,49,22.00
2005,06,19,16,50,22.10
2005,06,19,16,51,22.20
2005,06,19,16,52,22.20
2005,06,19,16,53,22.20
2005,06,19,16,54,22.10
2005,06,19,16,55,22.00
2005,06,19,16,56,22.00
2005,06,19,16,57,22.00
2005,06,19,16,58,21.90
2005,06,19,16,59,21.90
2005,06,19,17,00,22.00
2005,06,19,17,01,22.00
2005,06,19,17,02,22.00
2005,06,19,17,03,22.00
2005,06,19,17,04,22.00
2005,06,19,17,05,22.00
2005,06,19,17,06,22.00
2005,06,19,17,07,22.00
2005,06,19,17,08,22.00
2005,06,19,17,09,22.00
2005,06,19,17,10,22.00
2005,06,19,17,11,22.10
2005,06,19,17,12,22.10
2005,06,19,17,13,22.10
2005,06,19,17,14,22.10
2005,06,19,17,15,22.10
2005,06,19,17,16,22.00
2005,06,19,17,17,21.90
2005,06,19,17,18,21.70
2005,06,19,17,19,21.80